Washington, PA

4:12 PM EDT on June 25, 2017 (GMT -0400)
Washington County

Weather History for KAFJ - October, 2012

Change the Weather History Date:

Tuesday, October 30, 2012

  Actual Average Record
Temperature  
Mean Temperature 40 °F -  
Max Temperature 46 °F 55 °F 75 °F (1999)
Min Temperature 35 °F 35 °F 24 °F (2000)
Degree Days  
Heating Degree Days 24    
Moisture  
Dew Point 38 °F    
Average Humidity 92    
Maximum Humidity 100    
Minimum Humidity 87    
Precipitation  
Precipitation 0.00 in - - ()
Sea Level Pressure  
Sea Level Pressure 29.19 in    
Wind  
Wind Speed 10 mph (WSW)    
Max Wind Speed 17 mph    
Max Gust Speed 28 mph    
Visibility 8 miles    
Events      
Averages and records for this station are not official NWS values.
T = Trace of Precipitation, MM = Missing Value Source: NWS Daily Summary

Daily Weather History Graph

Daily Weather History Graph

Search for Another Location

Airport or City:

Trip Planner

Search our weather history database for the weather conditions in past years. The results will help you decide how hot, cold, wet, or windy it might be!

Date:

Astronomy

Oct. 30, 2012 Rise Set
Actual Time 7:48 AM EDT 6:20 PM EDT
Civil Twilight 7:20 AM EDT 6:48 PM EDT
Nautical Twilight 6:48 AM EDT 7:20 PM EDT
Astronomical Twilight 6:17 AM EDT 7:51 PM EDT
Moon 6:48 PM EDT (10/30) 8:33 AM EDT (10/30)
Length of Visible Light 11h 27m
Length of Day
10h 31m
Full, 99% of the Moon is Illuminated
Oct 30
Full
Nov 6
Last Quarter
Nov 13
New
Nov 20
First Quarter
Nov 28
Full

Hourly Weather History & Observations

Time (EDT) Temp. Windchill Dew Point Humidity Pressure Visibility Wind Dir Wind Speed Gust Speed Precip Events Conditions
12:15 AM 35.6 °F 26.2 °F 33.8 °F 93% 29.15 in 4.0 mi West 15.0 mph 26.5 mph N/A   Overcast
12:35 AM 37.4 °F 27.8 °F 33.8 °F 87% 29.14 in 7.0 mi WNW 17.3 mph 26.5 mph N/A   Overcast
12:55 AM 37.4 °F 29.8 °F 33.8 °F 87% 29.13 in 9.0 mi WNW 11.5 mph 27.6 mph N/A   Overcast
1:15 AM 37.4 °F 28.5 °F 33.8 °F 87% 29.13 in 10.0 mi WNW 15.0 mph 24.2 mph N/A   Overcast
1:35 AM 37.4 °F 28.9 °F 33.8 °F 87% 29.12 in 10.0 mi West 13.8 mph 19.6 mph N/A   Overcast
1:55 AM 37.4 °F 29.8 °F 33.8 °F 87% 29.11 in 10.0 mi WNW 11.5 mph 20.7 mph N/A   Overcast
2:15 AM 37.4 °F 28.9 °F 35.6 °F 93% 29.09 in 8.0 mi WNW 13.8 mph 20.7 mph N/A   Overcast
2:35 AM 37.4 °F 30.3 °F 35.6 °F 93% 29.09 in 5.0 mi WNW 10.4 mph 21.9 mph N/A   Overcast
3:55 AM 39.2 °F 31.2 °F 37.4 °F 93% 29.06 in 5.0 mi WNW 13.8 mph 24.2 mph N/A   Overcast
4:15 AM 39.2 °F 31.6 °F 37.4 °F 93% 29.05 in 5.0 mi WNW 12.7 mph 20.7 mph N/A   Overcast
4:55 AM 39.2 °F 31.6 °F 37.4 °F 93% 29.05 in 5.0 mi WNW 12.7 mph 25.3 mph N/A   Overcast
5:15 AM 39.2 °F 33.0 °F 37.4 °F 93% 29.05 in 5.0 mi WNW 9.2 mph 20.7 mph N/A   Overcast
5:35 AM 39.2 °F 32.0 °F 37.4 °F 93% 29.04 in 4.0 mi West 11.5 mph 24.2 mph N/A   Overcast
5:55 AM 39.2 °F 31.6 °F 37.4 °F 93% 29.04 in 4.0 mi West 12.7 mph 24.2 mph N/A   Overcast
6:15 AM 39.2 °F 31.2 °F 37.4 °F 93% 29.05 in 4.0 mi West 13.8 mph 23.0 mph N/A   Overcast
6:35 AM 39.2 °F 31.6 °F 37.4 °F 93% 29.05 in 4.0 mi WNW 12.7 mph 20.7 mph N/A   Overcast
6:55 AM 41.0 °F 33.5 °F 37.4 °F 87% 29.04 in 5.0 mi West 13.8 mph 20.7 mph N/A   Overcast
7:15 AM 41.0 °F 32.8 °F 37.4 °F 87% 29.05 in 5.0 mi WNW 16.1 mph 24.2 mph N/A   Overcast
7:35 AM 41.0 °F 34.3 °F 37.4 °F 87% 29.05 in 8.0 mi WNW 11.5 mph 20.7 mph N/A   Overcast
8:15 AM 41.0 °F 34.7 °F 39.2 °F 93% 29.06 in 10.0 mi WNW 10.4 mph 21.9 mph N/A   Overcast
8:35 AM 42.8 °F 35.8 °F 39.2 °F 87% 29.07 in 10.0 mi WNW 13.8 mph 23.0 mph N/A   Overcast
8:55 AM 42.8 °F 37.5 °F 39.2 °F 87% 29.08 in 10.0 mi West 9.2 mph - N/A   Overcast
9:35 AM 42.8 °F 37.5 °F 39.2 °F 87% 29.09 in 10.0 mi WNW 9.2 mph 17.3 mph N/A   Overcast
9:55 AM 42.8 °F 38.6 °F 39.2 °F 87% 29.10 in 9.0 mi NW 6.9 mph - N/A   Overcast
10:15 AM 42.8 °F 38.6 °F 39.2 °F 87% 29.10 in 9.0 mi West 6.9 mph - N/A   Overcast
10:35 AM 42.8 °F 40.1 °F 41.0 °F 93% 29.10 in 10.0 mi WNW 4.6 mph - N/A   Overcast
10:55 AM 42.8 °F - 41.0 °F 93% 29.11 in 5.0 mi Calm Calm - N/A   Overcast
11:15 AM 42.8 °F - 41.0 °F 93% 29.12 in 5.0 mi Calm Calm - N/A   Overcast
11:35 AM 44.6 °F 41.4 °F 42.8 °F 93% 29.13 in 10.0 mi West 5.8 mph - N/A   Overcast
11:55 AM 44.6 °F 43.1 °F 42.8 °F 93% 29.13 in 10.0 mi West 3.5 mph - N/A   Overcast
12:15 PM 44.6 °F 41.4 °F 42.8 °F 93% 29.14 in 10.0 mi NW 5.8 mph - N/A   Overcast
12:35 PM 46.4 °F 45.2 °F 42.8 °F 87% 29.15 in 10.0 mi North 3.5 mph - N/A   Overcast
12:55 PM 46.4 °F 45.2 °F 42.8 °F 87% 29.15 in 10.0 mi WNW 3.5 mph - N/A   Overcast
1:15 PM 46.4 °F - 42.8 °F 87% 29.16 in 10.0 mi Calm Calm - N/A   Overcast
1:35 PM 46.4 °F 45.2 °F 42.8 °F 87% 29.17 in 10.0 mi West 3.5 mph - N/A   Overcast
1:55 PM 46.4 °F 44.3 °F 42.8 °F 87% 29.17 in 10.0 mi West 4.6 mph - N/A   Overcast
2:15 PM 44.6 °F 41.4 °F 42.8 °F 93% 29.18 in 9.0 mi West 5.8 mph - N/A   Overcast
2:35 PM 44.6 °F - 42.8 °F 93% 29.19 in 10.0 mi Calm Calm - N/A   Overcast
2:55 PM 44.6 °F 41.4 °F 41.0 °F 87% 29.20 in 10.0 mi South 5.8 mph - N/A   Overcast
3:15 PM 42.8 °F 41.1 °F 39.2 °F 87% 29.21 in 9.0 mi SSE 3.5 mph - N/A   Overcast
3:35 PM 42.8 °F 40.1 °F 39.2 °F 87% 29.22 in 10.0 mi South 4.6 mph - N/A   Overcast
3:55 PM 42.8 °F 39.3 °F 39.2 °F 87% 29.23 in 10.0 mi South 5.8 mph - N/A   Overcast
4:15 PM 41.0 °F 36.4 °F 39.2 °F 93% 29.24 in 10.0 mi South 6.9 mph - N/A   Overcast
4:35 PM 39.2 °F 34.2 °F 37.4 °F 93% 29.24 in 10.0 mi South 6.9 mph - N/A   Overcast
4:55 PM 39.2 °F 35.0 °F 37.4 °F 93% 29.25 in 7.0 mi SSW 5.8 mph - N/A   Overcast
5:15 PM 39.2 °F 35.0 °F 37.4 °F 93% 29.27 in 7.0 mi South 5.8 mph - N/A   Overcast
5:35 PM 39.2 °F 35.0 °F 37.4 °F 93% 29.27 in 10.0 mi South 5.8 mph - N/A   Overcast
5:55 PM 39.2 °F 35.0 °F 37.4 °F 93% 29.28 in 10.0 mi South 5.8 mph - N/A   Overcast
6:15 PM 39.2 °F 35.0 °F 37.4 °F 93% 29.30 in 6.0 mi South 5.8 mph - N/A   Overcast
6:35 PM 39.2 °F 37.0 °F 37.4 °F 93% 29.30 in 9.0 mi South 3.5 mph - N/A   Overcast
6:55 PM 39.2 °F 35.9 °F 37.4 °F 93% 29.31 in 5.0 mi South 4.6 mph - N/A   Overcast
7:15 PM 37.4 °F 33.8 °F 37.4 °F 100% 29.32 in 6.0 mi South 4.6 mph - N/A   Overcast
7:35 PM 37.4 °F 34.9 °F 37.4 °F 100% 29.33 in 10.0 mi South 3.5 mph - N/A   Overcast
7:55 PM 37.4 °F - 37.4 °F 100% 29.34 in 10.0 mi Calm Calm - N/A   Overcast
8:15 PM 37.4 °F 34.9 °F 37.4 °F 100% 29.35 in 10.0 mi SSE 3.5 mph - N/A   Overcast
8:35 PM 37.4 °F 34.9 °F 35.6 °F 93% 29.35 in 10.0 mi SE 3.5 mph - N/A   Overcast
8:55 PM 37.4 °F - 35.6 °F 93% 29.36 in 10.0 mi Calm Calm - N/A   Overcast
9:15 PM 37.4 °F - 37.4 °F 100% 29.37 in 10.0 mi Calm Calm - N/A   Overcast
9:35 PM 37.4 °F 33.8 °F 37.4 °F 100% 29.37 in 10.0 mi South 4.6 mph - N/A   Overcast
9:55 PM 39.2 °F - 37.4 °F 93% 29.38 in 10.0 mi Calm Calm - N/A   Overcast
10:15 PM 39.2 °F 35.9 °F 37.4 °F 93% 29.39 in 10.0 mi South 4.6 mph - N/A   Overcast
10:35 PM 39.2 °F 35.0 °F 37.4 °F 93% 29.39 in 10.0 mi SSW 5.8 mph - N/A   Overcast
10:55 PM 39.2 °F 37.0 °F 37.4 °F 93% 29.38 in 10.0 mi SSW 3.5 mph - N/A   Overcast
11:15 PM 39.2 °F 37.0 °F 37.4 °F 93% 29.38 in 10.0 mi SSW 3.5 mph - N/A   Overcast
11:35 PM 39.2 °F 35.9 °F 37.4 °F 93% 29.38 in 8.0 mi SW 4.6 mph - N/A   Overcast
11:55 PM 41.0 °F 36.4 °F 39.2 °F 93% 29.38 in 4.0 mi SW 6.9 mph - N/A   Overcast